Flag for Germany Weather past 2 weeks in Zittau, Saxony, Germany

Now
61 °F

Overcast.


Feels Like: 61 °F
Forecast: 43 / 58 °F
Wind: 1 mph from North

Location: Liberec

Current Time: May 25, 2015 at 3:48:43 PM

Latest Report: May 25, 2015 at 3:00 PM


Visibility: 19 mi

Pressure: 29.88 "Hg

Humidity: 65%

Dew point: 49 °F

Location of ZittauLocation

Historic Weather in Zittau — Graph

°F

Zittau temperature yesterday

Maximum temperature yesterday: 64 °F (at 2:00 PM)
Minimum temperature yesterday: 47 °F (at 1:00 AM)
Average temperature yesterday: 55 °F

Past Weeks' High & Low Weather Summary

 TemperatureHumidityPressure
High70 °F (May 12, 5:00 PM)98% (May 11, 6:00 AM)30.45 "Hg (May 11, 6:00 AM)
Low31 °F (May 15, 5:00 AM)30% (May 15, 5:00 PM)29.68 "Hg (May 19, 4:00 AM)
Average53 °F64%30.07 "Hg
* Reported May 10 2:00 PM — May 25 2:00 PM, Zittau, Weather by CustomWeather, © 2015

Note: Actual official high and low records may vary slightly from our data, if they occured in-between our weather recording intervals... More about our weather records

Advertising

Zittau weather history for previous 24 hours

 ConditionsComfort  
Time TempWeatherWind HumidityBarometerVisibility
2:00 PM
Mon, May 25
60 °FOvercast.6 mph64%29.89 "Hg19 mi
1:00 PM64 °FOvercast.3 mph51%29.88 "Hg19 mi
12:00 PM67 °FPartly sunny.2 mph44%29.88 "Hg19 mi
11:00 AM66 °FPartly sunny.3 mph48%29.90 "Hg19 mi
10:00 AM64 °FScattered clouds.1 mph49%29.93 "Hg19 mi
9:00 AM63 °FScattered clouds.2 mph54%29.94 "Hg16 mi
8:00 AM58 °FPassing clouds.2 mph66%29.97 "Hg11 mi
7:00 AM50 °FCool.1 mph85%30.00 "Hg7 mi
6:00 AM45 °FFog.1 mph97%30.03 "Hg4 mi
5:00 AM43 °FFog.1 mph97%30.04 "Hg2 mi
4:00 AM44 °FFog.2 mph97%30.04 "Hg1 mi
3:00 AM44 °FFog.1 mph97%30.05 "Hg3 mi
2:00 AM43 °FFog.1 mph96%30.06 "Hg3 mi
1:00 AM44 °FFog.1 mph93%30.08 "Hg4 mi
12:00 AM45 °FCool.1 mph90%30.09 "Hg12 mi
11:00 PM
Sun, May 24
47 °FCool.1 mph84%30.08 "Hg12 mi
10:00 PM50 °FPassing clouds.1 mph78%30.07 "Hg19 mi
9:00 PM57 °FOvercast.1 mph69%30.04 "Hg16 mi
8:00 PM60 °FPartly sunny.2 mph67%30.03 "Hg19 mi
7:00 PM63 °FMild.1 mph54%30.03 "Hg12 mi
6:00 PM63 °FMild.2 mph55%30.03 "Hg12 mi
5:00 PM62 °FOvercast.1 mph57%30.06 "Hg19 mi
4:00 PM60 °FOvercast.1 mph61%30.07 "Hg19 mi
3:00 PM60 °FOvercast.2 mph64%30.07 "Hg16 mi
Weather by CustomWeather, © 2015

See weather overviewHow to use our weather pages